1506697201.14,53553,18.63,74452.0,2.39,-5.97,-8.25,0,*74
1506697202.38,53554,18.56,74446.3,2.41,-5.81,-7.95,0,*7F
1506697203.64,53555,18.56,74448.0,2.41,-5.81,-8.07,0,*7A
1506697204.88,53556,18.63,74450.8,2.41,-5.73,-8.07,0,*74
1506697206.13,53557,18.56,74448.5,2.41,-5.69,-8.07,0,*7E
1506697207.39,53558,18.56,74448.5,2.41,-5.69,-8.07,0,*71
1506697208.63,53559,18.63,74450.0,2.43,-5.39,-7.77,0,*7F
1506697209.88,53560,18.56,74446.8,2.41,-5.27,-7.77,0,*78
1506697211.15,53561,18.63,74448.3,2.43,-5.31,-7.95,0,*70
1506697212.42,53562,18.56,74450.5,2.43,-5.07,-7.77,0,*7A
1506697213.66,53563,18.56,74446.8,2.45,-4.89,-7.73,0,*7E
1506697214.87,53564,18.56,74450.0,2.47,-4.49,-7.49,0,*7E
1506697216.12,53565,18.56,74450.5,2.47,-4.21,-7.27,0,*79
1506697217.36,53566,18.56,74448.3,2.47,-4.13,-7.39,0,*74
1506697218.58,53567,18.63,74450.8,2.49,-4.05,-7.35,0,*70
1506697219.8,53568,18.63,74448.8,2.49,-3.95,-7.35,0,*71
1506697221.01,53569,18.63,74448.8,2.51,-4.05,-7.49,0,*7C
1506697222.26,53570,18.63,74450.0,2.51,-3.91,-7.35,0,*75
1506697223.48,53571,18.56,74446.8,2.57,-3.71,-7.15,0,*7E
1506697224.69,53572,18.56,74446.5,2.53,-3.51,-6.89,0,*7F
1506697225.89,53573,18.63,74452.3,2.57,-3.31,-6.73,0,*79
1506697227.1,53574,18.56,74448.3,2.59,-3.23,-6.59,0,*7B
1506697228.29,53575,18.63,74448.3,2.61,-3.07,-6.43,0,*7C
1506697229.48,53576,18.56,74446.0,2.61,-3.15,-6.31,0,*79
1506697230.66,53577,18.63,74454.0,2.61,-3.03,-6.01,0,*7C
1506697231.87,53578,18.63,74448.5,2.63,-3.03,-6.01,0,*71
1506697233.09,53579,18.56,74448.8,2.65,-3.11,-6.27,0,*71
1506697234.3,53580,18.56,74450.3,2.65,-3.11,-6.27,0,*77
1506697235.49,53581,18.56,74448.5,2.65,-2.99,-6.09,0,*7B
1506697236.71,53582,18.56,74448.3,2.65,-2.87,-5.93,0,*77
1506697237.94,53583,18.63,74450.8,2.67,-2.87,-5.77,0,*7E
1506697239.18,53584,18.56,74444.3,2.69,-2.87,-5.77,0,*77
1506697240.37,53585,18.56,74446.8,2.71,-2.79,-5.47,0,*7D
1506697241.57,53586,18.56,74450.0,2.71,-3.03,-5.51,0,*75
1506697242.76,53587,18.63,74450.8,2.71,-3.03,-5.47,0,*73
1506697243.99,53588,18.56,74448.0,2.71,-2.95,-5.23,0,*70
1506697245.24,53589,18.63,74448.5,2.73,-3.07,-5.27,0,*7D
1506697246.48,53590,18.56,74448.0,2.73,-2.83,-4.93,0,*76
1506697247.71,53591,18.56,74448.3,2.75,-2.99,-5.07,0,*76
1506697248.94,53592,18.56,74446.5,2.79,-3.51,-5.55,0,*7B
1506697250.18,53593,18.56,74450.0,2.79,-3.71,-5.89,0,*79
1506697251.38,53594,18.56,74448.8,2.75,-3.87,-6.01,0,*78
1506697252.61,53595,18.63,74450.3,2.79,-3.95,-6.19,0,*7F
1506697253.84,53596,18.63,74448.3,2.79,-3.83,-6.19,0,*7B
1506697255.06,53597,18.56,74450.3,2.81,-4.25,-6.47,0,*7D
1506697256.25,53598,18.63,74452.0,2.75,-4.37,-6.59,0,*75
1506697257.45,53599,18.56,74448.5,2.79,-4.37,-6.59,0,*78
1506697258.64,53600,18.56,74450.8,2.79,-4.25,-6.43,0,*73
1506697259.87,53601,18.56,74450.3,2.79,-4.01,-6.05,0,*76
1506697261.09,53602,18.56,74448.8,2.79,-4.01,-6.09,0,*79
1506697262.33,53603,18.56,74448.5,2.79,-3.71,-5.93,0,*78
1506697263.58,53604,18.56,74450.8,2.81,-3.63,-5.97,0,*7F
1506697264.82,53605,18.63,74452.8,2.81,-3.59,-5.97,0,*77
1506697266.04,53606,18.56,74446.8,2.83,-3.55,-6.13,0,*75
1506697267.28,53607,18.56,74448.5,2.83,-3.47,-6.27,0,*70
1506697268.52,53608,18.63,74448.0,2.83,-3.71,-6.63,0,*7A
1506697269.74,53609,18.56,74446.5,2.83,-3.59,-6.69,0,*7B
1506697270.97,53610,18.63,74452.5,2.83,-3.71,-7.05,0,*72
1506697272.21,53611,18.63,74450.0,2.87,-3.51,-7.01,0,*71
1506697273.43,53612,18.63,74448.5,2.87,-3.51,-7.19,0,*7B
1506697274.68,53613,18.56,74450.0,2.87,-3.55,-7.57,0,*74
1506697275.9,53614,18.56,74450.0,2.87,-3.27,-7.61,0,*73
1506697277.12,53615,18.63,74448.3,2.87,-3.39,-7.99,0,*7A
1506697278.31,53616,18.63,74450.5,2.87,-3.35,-8.45,0,*7B
1506697279.55,53617,18.63,74450.5,2.89,-3.43,-8.93,0,*7E
1506697280.81,53618,18.56,74448.3,2.89,-3.75,-9.45,0,*7E
1506697282.04,53619,18.56,74448.8,2.89,-3.91,-9.71,0,*72
1506697283.29,53620,18.63,74450.8,2.89,-4.01,-9.71,0,*76
1506697284.53,53621,18.56,74450.5,2.91,-3.71,-9.57,0,*7A
1506697285.8,53622,18.63,74450.8,2.89,-3.67,-9.37,0,*71
1506697287.05,53623,18.63,74448.0,2.89,-3.75,-9.61,0,*70
1506697288.31,53624,18.63,74450.5,2.89,-3.55,-9.15,0,*76
1506697289.53,53625,18.56,74448.0,2.91,-3.51,-8.63,0,*7A
1506697290.77,53626,18.56,74450.5,2.89,-3.43,-8.45,0,*77
1506697291.96,53627,18.63,74448.8,2.91,-3.39,-8.29,0,*78
1506697293.2,53628,18.63,74450.8,2.89,-3.23,-7.95,0,*7D
1506697294.44,53629,18.63,74448.3,2.89,-3.11,-7.69,0,*7E
1506697295.68,53630,18.56,74450.8,2.89,-3.23,-7.57,0,*7A
1506697296.89,53631,18.56,74444.0,2.91,-2.99,-7.05,0,*75
1506697298.1,53632,18.56,74448.3,2.89,-2.91,-6.73,0,*77
1506697299.32,53633,18.63,74450.0,2.89,-2.79,-6.39,0,*7E
1506697300.55,53634,18.56,74450.0,2.91,-2.59,-5.93,0,*71
1506697301.77,53635,18.56,74450.0,2.91,-2.43,-5.69,0,*7E
1506697302.98,53636,18.56,74446.5,2.91,-2.43,-5.65,0,*71
1506697304.17,53637,18.63,74454.5,2.91,-2.23,-5.51,0,*71
1506697305.42,53638,18.63,74448.5,2.89,-2.35,-5.61,0,*73
1506697306.63,53639,18.63,74448.8,2.89,-2.23,-5.43,0,*75
1506697307.85,53640,18.63,74450.3,2.91,-2.19,-5.27,0,*79
1506697309.07,53641,18.63,74450.8,2.91,-2.23,-5.19,0,*7C
1506697310.29,53642,18.63,74448.0,2.91,-2.23,-5.15,0,*73
1506697311.54,53643,18.56,74446.8,2.89,-2.35,-5.03,0,*7B
1506697312.75,53644,18.63,74450.0,2.91,-2.31,-4.77,0,*73
1506697313.97,53645,18.63,74450.0,2.91,-2.31,-4.77,0,*72
1506697315.24,53646,18.56,74448.8,2.89,-2.63,-4.93,0,*75
1506697316.49,53647,18.63,74448.3,2.89,-2.87,-5.23,0,*74
1506697317.76,53648,18.63,74448.3,2.89,-2.75,-5.07,0,*70
1506697318.98,53649,18.63,74448.8,2.87,-2.39,-4.81,0,*78
1506697320.22,53650,18.63,74448.8,2.87,-2.47,-4.81,0,*79
1506697321.44,53651,18.63,74448.8,2.87,-2.79,-5.11,0,*7D
1506697322.7,53652,18.56,74444.5,2.85,-2.67,-4.93,0,*78
1506697323.97,53653,18.56,74446.5,2.85,-2.55,-4.85,0,*7F
1506697325.2,53654,18.56,74444.3,2.87,-2.79,-5.23,0,*79
1506697326.46,53655,18.63,74450.3,2.85,-2.55,-4.93,0,*7E
1506697327.71,53656,18.56,74444.3,2.83,-2.51,-4.85,0,*78
1506697328.98,53657,18.63,74448.0,2.81,-2.71,-4.85,0,*79
1506697330.25,53658,18.56,74448.3,2.81,-2.47,-4.77,0,*7E
1506697331.5,53659,18.63,74448.0,2.83,-2.51,-4.69,0,*75
1506697332.69,53660,18.63,74448.5,2.83,-2.39,-4.61,0,*79
1506697333.87,53661,18.63,74448.0,2.83,-2.27,-4.33,0,*70
1506697335.06,53662,18.56,74446.3,2.83,-2.27,-4.37,0,*77
1506697336.29,53663,18.63,74450.5,2.81,-2.35,-4.37,0,*77
1506697337.47,53664,18.63,74450.3,2.83,-2.27,-4.17,0,*73
1506697338.72,53665,18.63,74450.0,2.81,-2.47,-4.37,0,*74
1506697339.91,53666,18.56,74446.5,2.83,-2.27,-4.09,0,*7E
1506697341.1,53667,18.63,74450.3,2.83,-2.27,-3.91,0,*79
1506697342.33,53668,18.56,74446.3,2.83,-1.95,-3.67,0,*75
1506697343.59,53669,18.56,74446.3,2.81,-1.95,-3.59,0,*7B
1506697344.83,53670,18.56,74448.3,2.83,-2.07,-3.59,0,*79
1506697346.08,53671,18.56,74448.5,2.81,-1.99,-3.35,0,*74
1506697347.3,53672,18.56,74448.5,2.83,-1.83,-3.07,0,*7F
1506697348.52,53673,18.63,74448.3,2.83,-1.95,-3.27,0,*7B
1506697349.7,53674,18.56,74446.8,2.83,-2.15,-3.39,0,*78
1506697350.92,53675,18.56,74444.5,2.83,-1.91,-3.27,0,*79
1506697352.14,53676,18.56,74450.3,2.83,-1.83,-3.03,0,*7F
1506697353.35,53677,18.63,74450.8,2.85,-1.79,-3.03,0,*7D
1506697354.57,53678,18.56,74448.8,2.87,-1.87,-2.99,0,*73
1506697355.81,53679,18.63,74448.8,2.85,-1.91,-3.07,0,*71
1506697357.06,53680,18.63,74454.0,2.89,-1.87,-2.99,0,*7A
1506697358.25,53681,18.63,74448.3,2.87,-1.75,-2.99,0,*78
1506697359.46,53682,18.63,74450.0,2.87,-1.99,-3.23,0,*79
1506697360.67,53683,18.56,74450.3,2.87,-1.91,-3.15,0,*75
1506697361.86,53684,18.56,74448.8,2.87,-1.79,-3.03,0,*73
1506697363.05,53685,18.63,74450.8,2.87,-1.75,-3.03,0,*7E
1506697364.23,53686,18.56,74450.3,2.87,-1.59,-2.91,0,*79
1506697365.41,53687,18.56,74446.8,2.87,-1.51,-2.79,0,*76
1506697366.65,53688,18.63,74448.8,2.91,-1.43,-2.75,0,*71
1506697367.86,53689,18.56,74444.8,2.89,-1.59,-2.91,0,*78
1506697369.08,53690,18.56,74450.3,2.89,-1.63,-2.99,0,*71
1506697370.28,53691,18.63,74450.5,2.93,-1.55,-2.91,0,*76
1506697371.52,53692,18.56,74448.8,2.93,-1.43,-2.91,0,*72
1506697372.73,53693,18.56,74450.0,2.93,-1.33,-2.91,0,*74
1506697373.94,53694,18.63,74450.8,2.95,-1.43,-3.03,0,*78
1506697375.15,53695,18.63,74450.0,2.93,-1.63,-3.35,0,*78
1506697376.38,53696,18.63,74450.8,2.93,-1.71,-3.55,0,*7E
1506697377.61,53697,18.56,74450.5,2.93,-1.71,-3.43,0,*78
1506697378.84,53698,18.63,74448.0,2.93,-1.55,-3.43,0,*71
1506697380.08,53699,18.56,74448.5,2.93,-1.71,-3.67,0,*70
1506697381.31,53700,18.56,74446.8,2.93,-1.95,-3.79,0,*74
1506697382.52,53701,18.56,74446.8,2.95,-1.91,-3.79,0,*77
1506697383.77,53702,18.56,74448.3,2.93,-1.95,-3.71,0,*7E
1506697385.02,53703,18.56,74448.5,2.93,-2.03,-3.67,0,*74
1506697386.27,53704,18.56,74450.0,2.93,-1.95,-3.55,0,*7E
1506697387.53,53705,18.56,74450.0,2.93,-1.83,-3.59,0,*74
1506697388.79,53706,18.56,74450.8,2.93,-1.83,-3.67,0,*7A
1506697390.02,53707,18.56,74448.3,2.93,-1.79,-3.59,0,*73
1506697391.25,53708,18.56,74448.5,2.93,-1.79,-3.67,0,*71
1506697392.46,53709,18.63,74448.3,2.93,-1.79,-3.79,0,*7F
1506697393.67,53710,18.56,74448.8,2.93,-1.79,-3.79,0,*77
1506697394.88,53711,18.63,74450.0,2.93,-1.71,-3.79,0,*7E
1506697396.11,53712,18.63,74448.3,2.93,-1.79,-3.71,0,*7D
1506697397.34,53713,18.56,74448.5,2.93,-1.91,-3.95,0,*70
1506697398.53,53714,18.63,74448.3,2.91,-1.71,-3.83,0,*7C
1506697399.75,53715,18.63,74448.5,2.91,-1.83,-3.95,0,*77
1506697400.96,53716,18.56,74448.3,2.91,-1.87,-3.95,0,*70
1506697402.15,53717,18.56,74450.8,2.91,-1.67,-3.83,0,*78
1506697403.37,53718,18.63,74448.0,2.91,-1.83,-3.95,0,*7A
1506697404.58,53719,18.56,74448.5,2.91,-1.95,-3.95,0,*7C
1506697405.79,53720,18.63,74450.5,2.91,-1.87,-3.95,0,*75
1506697407.0,53721,18.56,74448.5,2.89,-1.75,-3.87,0,*73
1506697408.22,53722,18.63,74448.3,2.91,-1.71,-3.71,0,*74
1506697409.46,53723,18.56,74446.8,2.89,-1.87,-3.87,0,*7C
1506697410.67,53724,18.63,74448.0,2.89,-2.15,-4.13,0,*79
1506697411.89,53725,18.63,74450.8,2.89,-2.27,-4.25,0,*7C
1506697413.1,53726,18.56,74448.3,2.89,-2.15,-4.17,0,*7F
1506697414.34,53727,18.56,74450.5,2.91,-2.07,-4.01,0,*73
1506697415.59,53728,18.56,74448.5,2.89,-2.11,-4.13,0,*71
1506697416.81,53729,18.56,74444.3,2.87,-1.99,-4.13,0,*7D
1506697418.05,53730,18.56,74450.8,2.87,-1.91,-4.01,0,*7E
1506697419.27,53731,18.56,74450.5,2.89,-1.79,-4.05,0,*73
1506697420.47,53732,18.63,74450.0,2.87,-1.71,-3.91,0,*7C
1506697421.65,53733,18.56,74450.5,2.87,-1.79,-4.05,0,*7F
1506697422.87,53734,18.63,74454.0,2.87,-2.03,-4.45,0,*72
1506697424.09,53735,18.63,74448.8,2.87,-1.99,-4.41,0,*77
1506697425.3,53736,18.56,74446.5,2.87,-1.99,-4.45,0,*70
1506697426.53,53737,18.63,74450.0,2.87,-1.99,-4.65,0,*73
1506697427.77,53738,18.63,74450.5,2.85,-1.95,-4.61,0,*76
1506697429.01,53739,18.56,74448.0,2.87,-2.03,-4.69,0,*71
1506697430.26,53740,18.63,74448.3,2.85,-2.27,-5.07,0,*72
1506697431.5,53741,18.63,74448.8,2.85,-2.63,-5.35,0,*72
1506697432.73,53742,18.56,74448.0,2.87,-2.35,-5.23,0,*77
1506697434.0,53743,18.56,74448.5,2.85,-2.55,-5.61,0,*74
1506697435.21,53744,18.56,74446.3,2.85,-2.83,-6.01,0,*7D
1506697436.45,53745,18.63,74450.3,2.85,-2.83,-5.93,0,*74
1506697437.69,53746,18.63,74448.5,2.83,-2.71,-5.93,0,*7C
1506697438.91,53747,18.63,74454.3,2.83,-2.71,-6.05,0,*71
1506697440.15,53748,18.63,74448.0,2.83,-2.59,-5.89,0,*73
1506697441.42,53749,18.56,74448.8,2.81,-2.75,-6.19,0,*74
1506697442.66,53750,18.63,74448.3,2.81,-2.71,-6.09,0,*79
1506697443.91,53751,18.63,74452.5,2.81,-2.71,-6.09,0,*78
1506697445.15,53752,18.63,74450.8,2.81,-2.83,-6.19,0,*77
1506697446.34,53753,18.63,74450.3,2.79,-2.99,-6.47,0,*71
1506697447.54,53754,18.63,74448.3,2.79,-3.19,-6.55,0,*7C
1506697448.74,53755,18.56,74448.0,2.79,-3.19,-6.59,0,*71
1506697449.93,53756,18.63,74448.5,2.75,-3.03,-6.39,0,*73
1506697451.12,53757,18.63,74450.5,2.75,-3.11,-6.59,0,*77
1506697452.37,53758,18.63,74454.0,2.75,-3.47,-6.93,0,*7D
1506697453.57,53759,18.63,74448.0,2.75,-3.39,-6.85,0,*72
1506697454.81,53760,18.63,74448.8,2.73,-3.19,-6.63,0,*74
1506697456.08,53761,18.63,74452.0,2.73,-3.67,-7.05,0,*7D
1506697457.33,53762,18.63,74448.5,2.73,-3.71,-7.19,0,*74
1506697458.55,53763,18.63,74448.5,2.69,-3.83,-7.15,0,*7F
1506697459.82,53764,18.56,74448.0,2.69,-3.71,-7.01,0,*70
1506697461.06,53765,18.56,74448.3,2.67,-3.47,-6.73,0,*7E
1506697462.3,53766,18.63,74450.3,2.67,-3.47,-6.59,0,*75
1506697463.54,53767,18.56,74446.5,2.67,-3.11,-6.23,0,*7A
1506697464.79,53768,18.63,74450.0,2.67,-2.95,-6.19,0,*71
1506697466.03,53769,18.56,74446.3,2.67,-2.95,-6.19,0,*70
1506697467.24,53770,18.56,74448.8,2.67,-2.87,-6.05,0,*76
1506697468.46,53771,18.63,74448.3,2.65,-3.03,-6.23,0,*7C
1506697469.64,53772,18.63,74450.8,2.65,-2.87,-6.09,0,*7A
1506697470.85,53773,18.56,74446.8,2.65,-2.91,-6.23,0,*74
1506697472.08,53774,18.56,74450.5,2.67,-2.87,-6.23,0,*76
1506697473.3,53775,18.56,74446.5,2.67,-3.07,-6.47,0,*7C
1506697474.49,53776,18.63,74452.3,2.65,-3.11,-6.47,0,*7A
1506697475.68,53777,18.63,74450.3,2.65,-3.15,-6.73,0,*78
1506697476.88,53778,18.63,74448.3,2.65,-3.39,-7.15,0,*78
1506697478.09,53779,18.63,74448.0,2.67,-3.11,-6.85,0,*79
1506697479.29,53780,18.56,74448.5,2.65,-3.15,-6.85,0,*79
1506697480.48,53781,18.63,74448.5,2.65,-2.99,-6.73,0,*74
1506697481.69,53782,18.63,74450.8,2.63,-2.95,-6.77,0,*79
1506697482.91,53783,18.56,74448.8,2.65,-3.15,-6.97,0,*79
1506697484.13,53784,18.56,74446.8,2.63,-2.95,-6.81,0,*76
1506697485.37,53785,18.56,74446.0,2.63,-3.03,-7.01,0,*70
1506697486.6,53786,18.63,74448.8,2.63,-3.15,-7.35,0,*73
1506697487.85,53787,18.63,74448.3,2.63,-3.15,-7.43,0,*73
1506697489.06,53788,18.63,74454.0,2.63,-3.03,-7.49,0,*71
1506697490.3,53789,18.63,74450.0,2.63,-3.07,-7.61,0,*7E
1506697491.51,53790,18.56,74448.3,2.63,-3.07,-7.83,0,*7A
1506697492.74,53791,18.56,74444.8,2.63,-3.15,-8.03,0,*7F
1506697493.95,53792,18.63,74448.8,2.63,-3.19,-8.25,0,*74
1506697495.13,53793,18.56,74446.8,2.61,-3.07,-8.25,0,*78
1506697496.32,53794,18.63,74450.8,2.61,-3.15,-8.41,0,*7E
1506697497.51,53795,18.63,74450.5,2.61,-3.15,-8.63,0,*7F
1506697498.69,53796,18.56,74450.0,2.61,-3.15,-8.67,0,*78
1506697499.9,53797,18.63,74450.8,2.61,-3.27,-8.81,0,*70
1506697501.11,53798,18.63,74450.8,2.61,-3.27,-8.81,0,*7F
1506697502.29,53799,18.63,74448.3,2.61,-3.15,-8.67,0,*77
1506697503.5,53800,18.63,74448.3,2.59,-3.19,-8.71,0,*78
1506697504.69,53801,18.63,74450.8,2.61,-3.27,-8.93,0,*73
1506697505.9,53802,18.63,74452.8,2.59,-3.23,-8.89,0,*74
1506697507.12,53803,18.56,74446.5,2.59,-3.35,-9.01,0,*73
1506697508.39,53804,18.63,74448.0,2.59,-3.43,-9.37,0,*70
1506697509.66,53805,18.63,74450.5,2.59,-3.55,-9.53,0,*74
1506697510.89,53806,18.56,74446.0,2.61,-3.43,-9.57,0,*7F
1506697512.16,53807,18.63,74450.5,2.59,-3.59,-9.83,0,*77
1506697513.4,53808,18.56,74450.0,2.57,-3.55,-9.83,0,*7A
1506697514.62,53809,18.56,74448.3,2.57,-3.67,-10.19,0,*41
1506697515.85,53810,18.56,74444.5,2.57,-3.87,-10.63,0,*4A
1506697517.07,53811,18.63,74450.0,2.57,-3.87,-10.79,0,*40
1506697518.34,53812,18.56,74446.5,2.59,-4.01,-11.33,0,*4B
1506697519.62,53813,18.56,74446.5,2.59,-4.01,-11.63,0,*4F
1506697520.85,53814,18.63,74448.8,2.59,-4.21,-12.03,0,*4F
1506697522.05,53815,18.56,74446.3,2.53,-4.61,-12.89,0,*42
1506697523.24,53816,18.56,74446.0,2.53,-4.61,-13.07,0,*46
1506697524.46,53817,18.56,74446.8,2.53,-4.61,-13.33,0,*40
1506697525.64,53818,18.56,74448.0,2.57,-4.49,-13.69,0,*4E
1506697526.86,53819,18.56,74446.0,2.53,-4.89,-14.37,0,*4B
1506697528.07,53820,18.56,74444.8,2.57,-5.11,-14.69,0,*4E
1506697529.3,53821,18.56,74448.3,2.53,-5.31,-15.11,0,*47
1506697530.5,53822,18.56,74444.8,2.53,-5.39,-15.25,0,*4B
1506697531.74,53823,18.56,74446.5,2.51,-5.11,-15.15,0,*41
1506697532.97,53824,18.56,74446.3,2.51,-5.47,-15.71,0,*47
1506697534.17,53825,18.63,74448.8,2.49,-5.51,-15.95,0,*42
1506697535.42,53826,18.56,74446.5,2.51,-5.51,-15.81,0,*4D
1506697536.67,53827,18.56,74446.5,2.51,-5.47,-15.57,0,*40
1506697537.92,53828,18.56,74448.8,2.51,-5.31,-15.15,0,*48
1506697539.17,53829,18.56,74448.5,2.49,-5.31,-14.93,0,*4F
1506697540.36,53830,18.56,74448.0,2.49,-5.43,-15.07,0,*4E
1506697541.64,53831,18.63,74448.0,2.51,-5.65,-15.39,0,*4F
1506697542.87,53832,18.56,74446.5,2.51,-6.01,-15.71,0,*41
1506697544.06,53833,18.63,74448.8,2.49,-5.97,-15.67,0,*42
1506697545.29,53834,18.63,74450.3,2.49,-6.01,-15.43,0,*4F
1506697546.51,53835,18.63,74450.5,2.49,-5.77,-15.11,0,*4B
1506697547.79,53836,18.63,74448.5,2.51,-5.85,-14.83,0,*46
1506697549.01,53837,18.56,74446.5,2.49,-5.85,-14.69,0,*4A
1506697550.28,53838,18.56,74444.8,2.51,-5.77,-14.55,0,*4E
1506697551.54,53839,18.63,74450.5,2.49,-5.85,-14.51,0,*4F
1506697552.76,53840,18.56,74446.8,2.49,-5.85,-14.29,0,*4E
1506697554.02,53841,18.56,74446.0,2.49,-5.85,-13.97,0,*4D
1506697555.25,53842,18.56,74446.0,2.47,-5.77,-13.69,0,*4C
1506697556.49,53843,18.63,74448.5,2.47,-5.77,-13.47,0,*41
1506697557.74,53844,18.56,74446.5,2.47,-5.51,-13.01,0,*40
1506697558.95,53845,18.56,74446.3,2.49,-5.35,-12.65,0,*4E
1506697560.2,53846,18.63,74446.3,2.49,-5.31,-12.57,0,*48
1506697561.46,53847,18.56,74446.8,2.49,-5.31,-12.71,0,*4D
1506697562.71,53848,18.63,74448.5,2.49,-5.19,-12.79,0,*40
1506697563.95,53849,18.63,74450.3,2.51,-5.11,-12.97,0,*40
1506697565.2,53850,18.56,74444.5,2.49,-5.31,-13.33,0,*4C
1506697566.45,53851,18.56,74444.0,2.49,-5.77,-14.51,0,*4C
1506697567.65,53852,18.63,74450.3,2.49,-6.09,-15.53,0,*46
1506697568.86,53853,18.56,74446.8,2.47,-6.69,-16.45,0,*4B
1506697570.11,53854,18.63,74448.0,2.47,-7.11,-17.41,0,*47
1506697571.36,53855,18.63,74448.0,2.47,-7.53,-18.31,0,*48
1506697572.58,53856,18.56,74444.8,2.45,-7.35,-18.17,0,*4D
1506697573.77,53857,18.56,74444.0,2.45,-7.49,-18.45,0,*40
1506697575.02,53858,18.56,74444.8,2.45,-7.35,-17.93,0,*40
1506697576.23,53859,18.56,74446.3,2.45,-7.35,-17.49,0,*46
1506697577.51,53860,18.56,74446.5,2.43,-7.27,-17.17,0,*42
1506697578.73,53861,18.56,74446.0,2.43,-7.23,-16.93,0,*4A
1506697579.95,53862,18.56,74444.0,2.41,-7.43,-17.31,0,*44
1506697581.23,53863,18.63,74448.3,2.43,-7.57,-17.45,0,*41
1506697582.49,53864,18.56,74446.5,2.43,-7.57,-17.73,0,*43
1506697583.69,53865,18.56,74446.0,2.41,-7.83,-18.45,0,*43
1506697584.91,53866,18.56,74444.0,2.41,-8.07,-19.03,0,*40
1506697586.14,53867,18.63,74448.3,2.41,-8.51,-19.51,0,*45
1506697587.33,53868,18.56,74444.0,2.41,-8.25,-19.03,0,*4E
1506697588.58,53869,18.56,74444.3,2.39,-8.41,-19.27,0,*44
1506697589.8,53870,18.56,74446.8,2.37,-8.45,-19.23,0,*42
1506697591.02,53871,18.63,74446.8,2.39,-8.55,-19.17,0,*4B
1506697592.27,53872,18.56,74444.0,2.39,-8.51,-18.99,0,*4B
1506697593.47,53873,18.63,74450.8,2.37,-8.93,-19.37,0,*4F
1506697594.67,53874,18.63,74446.0,2.35,-9.05,-19.37,0,*44
1506697595.9,53875,18.63,74444.0,2.37,-8.81,-19.13,0,*4C
1506697597.15,53876,18.56,74446.3,2.33,-9.19,-19.41,0,*4C
1506697598.4,53877,18.63,74446.8,2.33,-8.89,-18.89,0,*40
1506697599.62,53878,18.56,74444.3,2.33,-8.71,-18.49,0,*44
1506697600.85,53879,18.63,74444.8,2.35,-8.71,-18.35,0,*48
1506697602.1,53880,18.56,74446.5,2.33,-8.75,-18.35,0,*4C
1506697603.32,53881,18.56,74444.5,2.35,-8.67,-18.31,0,*4C
1506697604.54,53882,18.63,74446.5,2.33,-8.75,-18.49,0,*45
1506697605.77,53883,18.56,74444.0,2.33,-8.97,-18.73,0,*41
1506697606.98,53884,18.63,74448.0,2.29,-8.97,-18.79,0,*47
1506697608.22,53885,18.56,74442.3,2.29,-9.15,-19.03,0,*41
1506697609.43,53886,18.56,74444.5,2.29,-9.31,-19.07,0,*40
1506697610.65,53887,18.56,74446.3,2.27,-9.41,-19.07,0,*48
1506697611.88,53888,18.56,74444.5,2.27,-9.37,-18.69,0,*4F
1506697613.1,53889,18.63,74446.5,2.27,-9.37,-18.49,0,*4C
1506697614.33,53890,18.56,74444.8,2.29,-9.31,-18.11,0,*41
1506697615.55,53891,18.56,74446.3,2.27,-9.45,-17.73,0,*46
1506697616.79,53892,18.63,74446.0,2.27,-9.57,-17.59,0,*4E
1506697618.03,53893,18.56,74444.8,2.27,-9.49,-17.17,0,*4A
1506697619.26,53894,18.63,74444.0,2.27,-9.45,-16.89,0,*47
1506697620.5,53895,18.56,74444.8,2.27,-9.49,-16.69,0,*44
1506697621.71,53896,18.56,74446.5,2.27,-9.57,-16.37,0,*43
1506697622.96,53897,18.56,74446.3,2.27,-9.61,-16.09,0,*4A
1506697624.23,53898,18.63,74446.8,2.25,-9.61,-15.85,0,*40
1506697625.46,53899,18.56,74446.8,2.23,-9.79,-15.57,0,*41
1506697626.68,53900,18.56,74446.3,2.25,-9.71,-15.11,0,*4C
1506697627.91,53901,18.63,74446.8,2.27,-9.37,-14.65,0,*4F
1506697629.13,53902,18.56,74444.3,2.23,-9.53,-14.29,0,*42
1506697630.32,53903,18.56,74446.8,2.23,-9.27,-13.43,0,*4B
1506697631.55,53904,18.63,74446.5,2.23,-8.97,-12.75,0,*42
1506697632.77,53905,18.63,74444.0,2.23,-8.55,-12.11,0,*4F
1506697633.98,53906,18.56,74444.0,2.23,-8.67,-11.81,0,*47
1506697635.18,53907,18.56,74444.3,2.23,-8.41,-11.19,0,*43
1506697636.38,53908,18.56,74442.0,2.19,-8.45,-10.93,0,*42
1506697637.6,53909,18.56,74446.5,2.21,-8.33,-10.49,0,*4E
1506697638.82,53910,18.63,74446.5,2.21,-8.29,-10.09,0,*49
1506697640.06,53911,18.56,74444.8,2.21,-8.03,-9.67,0,*70
1506697641.31,53912,18.63,74448.8,2.21,-7.61,-9.05,0,*7C
1506697642.49,53913,18.63,74448.0,2.19,-7.53,-8.75,0,*71
1506697643.71,53914,18.63,74446.0,2.21,-7.11,-8.29,0,*72
1506697644.9,53915,18.56,74446.5,2.19,-7.15,-8.21,0,*74
1506697646.12,53916,18.56,74444.3,2.19,-6.89,-7.95,0,*73
1506697647.31,53917,18.56,74444.8,2.19,-6.89,-7.83,0,*75
1506697648.5,53918,18.56,74444.0,2.19,-6.59,-7.49,0,*71
1506697649.69,53919,18.56,74444.5,2.19,-6.31,-7.15,0,*77
1506697650.94,53920,18.56,74446.5,2.17,-6.09,-7.01,0,*7D
1506697652.15,53921,18.56,74442.3,2.17,-5.97,-6.89,0,*79
1506697653.38,53922,18.56,74446.8,2.17,-5.55,-6.47,0,*76
1506697654.65,53923,18.56,74444.8,2.17,-5.23,-6.27,0,*70
1506697655.88,53924,18.56,74446.5,2.17,-5.11,-6.13,0,*71
1506697657.11,53925,18.56,74446.8,2.17,-4.93,-6.09,0,*70
1506697658.32,53926,18.56,74444.0,2.19,-4.77,-6.05,0,*7B
1506697659.56,53927,18.56,74444.8,2.17,-4.57,-5.89,0,*71
1506697660.82,53928,18.56,74446.5,2.17,-4.81,-6.23,0,*76
1506697662.05,53929,18.56,74446.3,2.17,-4.81,-6.13,0,*74
1506697663.32,53930,18.56,74444.0,2.17,-4.89,-6.23,0,*77
1506697664.53,53931,18.56,74444.0,2.17,-4.53,-6.09,0,*79
1506697665.77,53932,18.56,74446.5,2.17,-4.41,-5.89,0,*72
1506697667.01,53933,18.56,74444.8,2.17,-4.29,-5.81,0,*75
1506697668.26,53934,18.56,74446.5,2.17,-4.21,-5.89,0,*72
1506697669.49,53935,18.56,74446.0,2.17,-4.21,-6.01,0,*70
1506697670.7,53936,18.56,74444.3,2.19,-4.13,-5.93,0,*74
1506697671.89,53937,18.56,74446.8,2.19,-4.17,-5.97,0,*75
1506697673.08,53938,18.63,74448.8,2.19,-4.29,-6.09,0,*73
1506697674.29,53939,18.56,74446.8,2.17,-4.29,-6.09,0,*7C
1506697675.5,53940,18.56,74446.5,2.17,-4.41,-6.13,0,*77
1506697676.73,53941,18.56,74446.0,2.17,-4.21,-6.09,0,*7B
1506697678.0,53942,18.56,74444.3,2.17,-4.01,-5.89,0,*71
1506697679.22,53943,18.56,74444.3,2.17,-3.87,-6.01,0,*7A
1506697680.46,53944,18.56,74446.0,2.17,-4.01,-6.01,0,*74
1506697681.65,53945,18.56,74444.0,2.15,-3.87,-5.97,0,*72
1506697682.88,53946,18.63,74448.8,2.19,-3.95,-5.93,0,*7A
1506697684.1,53947,18.56,74444.0,2.19,-3.75,-5.81,0,*76
1506697685.32,53948,18.56,74444.5,2.19,-3.95,-5.81,0,*77
1506697686.58,53949,18.56,74444.0,2.17,-3.91,-5.85,0,*78
1506697687.8,53950,18.56,74444.8,2.15,-3.91,-5.73,0,*7B
1506697689.0,53951,18.56,74446.8,2.19,-3.75,-5.43,0,*7F
1506697690.19,53952,18.56,74446.5,2.19,-3.87,-5.43,0,*71
1506697691.38,53953,18.56,74446.8,2.19,-3.87,-5.51,0,*73
1506697692.58,53954,18.56,74446.5,2.15,-3.91,-5.43,0,*7C
1506697693.81,53955,18.56,74446.8,2.19,-4.01,-5.55,0,*78
1506697695.04,53956,18.56,74446.0,2.19,-4.01,-5.51,0,*7F
1506697696.24,53957,18.56,74444.3,2.15,-3.91,-5.43,0,*7F
1506697697.48,53958,18.56,74448.3,2.17,-3.87,-5.31,0,*70
1506697698.74,53959,18.56,74444.8,2.17,-3.91,-5.23,0,*75
1506697699.97,53960,18.63,74448.3,2.15,-3.75,-5.07,0,*71
1506697701.2,53961,18.56,74446.8,2.15,-3.91,-5.19,0,*75
1506697702.45,53962,18.56,74446.0,2.15,-4.01,-5.23,0,*71
1506697703.71,53963,18.63,74450.0,2.17,-3.91,-5.11,0,*7D
1506697704.96,53964,18.56,74446.5,2.17,-3.79,-4.93,0,*77
1506697706.2,53965,18.56,74444.5,2.15,-3.67,-4.89,0,*70
1506697707.44,53966,18.56,74446.5,2.15,-3.67,-4.77,0,*72
1506697708.68,53967,18.56,74446.5,2.13,-3.43,-4.57,0,*71
1506697709.88,53968,18.56,74446.3,2.15,-3.27,-4.21,0,*7B
1506697711.08,53969,18.56,74444.8,2.15,-3.15,-4.21,0,*7B
1506697712.27,53970,18.56,74446.0,2.15,-3.11,-4.13,0,*76
1506697713.49,53971,18.56,74444.0,2.15,-2.99,-4.01,0,*75
1506697714.7,53972,18.56,74446.0,2.15,-2.99,-4.01,0,*76